Location: Chipmunk Meadow
(41.1540°N, 122.8814°W)
Time: 15:42:34
(UTC+00:00)

Cosmos 2112 Rocket - Pass Details

Date: 13 April 2024
Orbit: 754 x 785 km, 74.0° (Epoch: 22 May)

Event Time Altitude Azimuth Distance (km) Brightness Sun altitude
Exits shadow 12:17:05 18° 216° (SW) 1,844 5.5 -14.5°
Maximum altitude 12:21:00 60° 292° (WNW) 893 4.1 -13.8°
Drops below altitude 10° 12:26:18 10° 12° (NNE) 2,351 7.1 -12.9°
Sets 12:28:44 0° 17° (NNE) 3,285 7.9 -12.5°
